Date,TemperatureHighF,TemperatureAvgF,TemperatureLowF,DewpointHighF,DewpointAvgF,DewpointLowF,HumidityHigh,HumidityAvg,HumidityLow,PressureMaxIn,PressureMinIn,WindSpeedMaxMPH,WindSpeedAvgMPH,GustSpeedMaxMPH,PrecipitationSumIn
2013-1-1,24,24,23,24,24,23,100,100,100,0.00,40.00,0,-999,0,0.00
2013-1-2,33,28,25,33,28,25,100,100,100,0.00,40.00,0,-999,0,0.00
2013-1-4,36,33,32,36,33,32,100,100,100,0.00,40.00,0,-999,0,0.00
2013-1-5,35,32,30,35,32,30,100,100,100,0.00,40.00,0,-999,0,0.12
2013-1-6,32,29,25,32,29,25,100,100,99,0.00,40.00,0,-999,0,0.00
2013-1-7,31,31,31,31,31,31,100,100,100,0.00,40.00,0,-999,0,0.00
2013-1-9,23,22,21,23,22,21,100,100,99,0.00,40.00,0,-999,0,0.00
2013-1-10,24,21,18,24,21,18,100,100,96,0.00,40.00,0,-999,0,0.03
2013-1-11,18,14,9,18,14,8,100,100,97,0.00,40.00,0,-999,0,0.00
2013-1-12,11,10,10,11,10,10,100,100,100,0.00,40.00,0,-999,0,0.00
2013-1-13,24,17,12,24,17,12,100,100,100,0.00,40.00,0,-999,0,0.00
2013-1-14,29,23,17,29,23,17,100,100,100,0.00,40.00,0,-999,0,0.00
2013-1-15,32,27,22,32,27,22,100,100,100,0.00,40.00,0,-999,0,0.00
2013-1-16,33,29,27,33,29,27,100,100,100,0.00,40.00,0,-999,0,0.00
2013-1-17,35,32,30,35,32,28,100,99,86,0.00,40.00,0,-999,0,0.00
2013-1-18,38,33,31,36,31,25,100,90,60,0.00,40.00,0,-999,0,0.00
2013-1-19,39,34,32,37,32,27,100,93,82,0.00,40.00,0,-999,0,0.00
2013-1-20,39,35,34,38,34,29,100,97,81,0.00,40.00,0,-999,0,0.00
2013-1-21,39,34,32,38,32,25,100,92,72,0.00,40.00,0,-999,0,0.00
2013-1-22,47,39,32,44,32,15,100,77,31,0.00,40.00,0,-999,0,0.00
2013-1-23,41,36,30,39,34,28,100,94,73,0.00,40.00,0,-999,0,0.15
2013-1-24,36,30,22,36,30,22,100,98,79,0.00,40.00,0,-999,0,0.07
2013-1-25,37,33,25,37,33,25,100,100,100,0.00,40.00,0,-999,0,0.02
2013-1-26,30,28,25,30,27,25,100,99,91,0.00,40.00,0,-999,0,0.17
2013-1-27,29,26,24,29,26,24,100,99,92,0.00,40.00,0,-999,0,0.21
2013-1-28,28,27,25,28,27,25,100,100,98,0.00,40.00,0,-999,0,0.60
2013-1-29,33,29,28,33,29,28,100,100,100,0.00,40.00,0,-999,0,0.09
2013-1-31,35,34,33,35,34,33,100,100,100,0.00,40.00,0,-999,0,0.03
2013-2-1,33,32,29,33,32,29,100,100,100,0.00,40.00,0,-999,0,0.00
2013-2-2,34,31,29,34,31,29,100,100,100,0.00,40.00,0,-999,0,0.00
2013-2-3,33,29,25,33,29,25,100,100,100,0.00,40.00,0,-999,0,0.03
2013-2-4,35,32,28,35,32,28,100,100,99,0.00,40.00,0,-999,0,0.07
2013-2-5,37,34,30,37,32,30,100,96,78,0.00,40.00,0,-999,0,0.08
2013-2-6,33,30,29,33,30,29,100,100,100,0.00,40.00,0,-999,0,0.17
2013-2-7,30,27,22,30,27,22,100,100,98,0.00,40.00,0,-999,0,0.15
2013-2-8,27,23,17,27,23,17,100,100,100,0.00,40.00,0,-999,0,0.00
2013-2-9,31,27,23,31,27,23,100,100,96,0.00,40.00,0,-999,0,0.00
2013-2-10,32,26,22,32,26,22,100,100,100,0.00,40.00,0,-999,0,0.00
2013-2-11,32,28,22,32,28,22,100,100,100,0.00,40.00,0,-999,0,0.02
2013-2-12,35,30,26,35,30,26,100,100,98,0.00,40.00,0,-999,0,0.01
2013-2-13,34,31,28,34,30,28,100,98,91,0.00,40.00,0,-999,0,0.00
2013-2-14,35,31,27,35,31,27,100,100,97,0.00,40.00,0,-999,0,0.05
2013-2-15,38,34,31,38,34,31,100,100,100,0.00,40.00,0,-999,0,0.00
2013-2-16,34,31,26,34,31,26,100,100,97,0.00,40.00,0,-999,0,0.18
2013-2-17,28,26,22,27,25,22,100,98,92,0.00,40.00,0,-999,0,0.00
2013-2-18,30,25,19,27,24,19,100,95,81,0.00,40.00,0,-999,0,0.00
2013-2-19,31,24,19,27,23,19,100,95,70,0.00,40.00,0,-999,0,0.00
2013-2-20,30,23,16,27,22,16,100,95,77,0.00,40.00,0,-999,0,0.01
2013-2-21,30,26,22,30,26,22,100,99,94,0.00,40.00,0,-999,0,0.24
2013-2-22,33,28,22,33,28,22,100,100,96,0.00,40.00,0,-999,0,0.40
2013-2-23,29,25,22,28,25,22,100,99,95,0.00,40.00,0,-999,0,0.25
2013-2-24,33,26,20,32,25,20,100,98,88,0.00,40.00,0,-999,0,0.00
2013-2-25,29,26,22,29,26,22,100,98,91,0.00,40.00,0,-999,0,0.49
2013-2-26,32,24,18,29,23,18,100,95,70,0.00,40.00,0,-999,0,0.00
2013-2-27,36,28,22,31,27,22,100,96,79,0.00,40.00,0,-999,0,0.00
2013-2-28,35,33,29,35,33,29,100,100,100,0.00,40.00,0,-999,0,0.44
2013-3-1,40,36,32,40,36,32,100,100,100,0.00,40.00,0,-999,0,0.00
2013-3-2,46,34,26,38,33,26,100,97,50,0.00,40.00,0,-999,0,0.07
2013-3-3,28,25,20,25,22,20,100,92,78,0.00,40.00,0,-999,0,0.00
2013-3-4,35,24,17,23,19,16,100,81,52,0.00,40.00,0,-999,0,0.00
2013-3-5,30,28,26,28,24,18,100,87,61,0.00,40.00,0,-999,0,0.14
2013-3-6,35,29,26,34,29,26,100,99,92,0.00,40.00,0,-999,0,0.28
2013-3-7,35,29,24,33,29,24,100,98,89,0.00,40.00,0,-999,0,0.00
2013-3-8,31,25,19,31,25,19,100,100,91,0.00,40.00,0,-999,0,0.00
2013-3-9,38,26,19,34,26,19,100,97,70,0.00,40.00,0,-999,0,0.00
2013-3-10,33,29,25,33,29,25,100,100,94,0.00,40.00,0,-999,0,0.07
2013-3-11,39,33,29,38,33,29,100,100,95,0.00,40.00,0,-999,0,0.03
2013-3-12,40,36,34,40,36,34,100,100,99,0.00,40.00,0,-999,0,0.12
2013-3-13,42,36,34,41,36,34,100,100,96,0.00,40.00,0,-999,0,0.04
2013-3-14,49,42,33,43,34,22,100,77,38,0.00,40.00,0,-999,0,0.04
2013-3-15,40,36,32,39,35,32,100,99,94,0.00,40.00,0,-999,0,0.02
2013-3-16,35,31,24,34,31,24,100,100,95,0.00,40.00,0,-999,0,0.36
2013-3-17,27,25,23,25,24,22,100,97,85,0.00,40.00,0,-999,0,0.12
2013-3-18,32,26,19,28,25,19,100,94,77,0.00,40.00,0,-999,0,0.03
2013-3-19,33,26,18,30,25,18,100,95,76,0.00,40.00,0,-999,0,0.67
2013-3-20,36,31,22,36,31,22,100,98,73,0.00,40.00,0,-999,0,1.15
2013-3-21,27,23,21,25,23,21,100,98,93,0.00,40.00,0,-999,0,0.22
2013-3-22,25,19,14,23,19,13,100,97,88,0.00,40.00,0,-999,0,0.04
2013-3-23,30,20,13,26,19,13,100,95,80,0.00,40.00,0,-999,0,0.00
2013-3-24,34,25,18,31,24,18,100,94,74,0.00,40.00,0,-999,0,0.00
2013-3-25,40,29,21,36,28,21,100,97,77,0.00,40.00,0,-999,0,0.00
2013-3-26,41,34,30,38,34,30,100,98,89,0.00,40.00,0,-999,0,0.00
2013-3-27,40,35,32,39,35,32,100,99,96,0.00,40.00,0,-999,0,0.12
2013-3-28,45,36,32,39,35,32,100,97,77,0.00,40.00,0,-999,0,0.00
2013-3-29,44,35,31,38,34,31,100,96,76,0.00,40.00,0,-999,0,0.00
2013-3-30,48,37,31,38,29,-100,100,92,67,0.00,40.00,0,-999,0,0.00
2013-3-31,49,39,35,36,35,33,99,84,59,0.00,40.00,0,-999,0,0.00
2013-4-1,50,39,34,41,36,32,99,90,67,0.00,40.00,0,-999,0,0.00
2013-4-2,46,37,34,39,36,34,100,97,77,0.00,40.00,0,-999,0,0.00
2013-4-3,46,40,35,38,36,33,100,86,68,0.00,40.00,0,-999,0,0.00
2013-4-4,43,40,36,42,37,32,100,93,75,0.00,40.00,0,-999,0,0.79
2013-4-5,44,38,35,40,37,34,100,95,74,0.00,40.00,0,-999,0,0.58
2013-4-6,35,34,32,35,33,32,100,98,94,0.00,40.00,0,-999,0,0.52
2013-4-7,34,32,31,33,32,30,100,97,91,0.00,40.00,0,-999,0,0.95
2013-4-8,36,33,28,34,32,28,100,97,91,0.00,40.00,0,-999,0,0.01
2013-4-9,39,33,27,37,32,27,100,98,92,0.00,40.00,0,-999,0,0.00
2013-4-10,43,35,30,41,34,29,100,96,79,0.00,40.00,0,-999,0,0.36
2013-4-11,36,32,29,32,29,26,100,90,70,0.00,40.00,0,-999,0,0.01
2013-4-12,41,31,26,31,26,15,100,84,35,0.00,40.00,0,-999,0,0.16
2013-4-13,29,26,22,29,25,20,100,95,92,0.00,40.00,0,-999,0,0.52
2013-4-15,36,30,28,31,29,27,99,94,81,0.00,40.00,0,-999,0,0.35
2013-4-16,38,28,22,29,26,22,99,90,66,0.00,40.00,0,-999,0,0.00
2013-4-17,38,29,20,32,26,19,100,90,68,0.00,40.00,0,-999,0,0.00
2013-4-18,38,33,29,37,33,29,100,98,91,0.00,40.00,0,-999,0,0.23
2013-4-19,40,36,33,39,35,33,100,99,94,0.00,40.00,0,-999,0,0.47
2013-4-20,38,35,33,35,34,33,100,95,85,0.00,40.00,0,-999,0,0.07
2013-4-21,39,32,30,33,31,30,100,97,77,0.00,40.00,0,-999,0,0.08
2013-4-22,42,31,24,32,28,23,100,88,53,0.00,40.00,0,-999,0,0.00
2013-4-23,43,33,25,32,25,19,98,75,43,0.00,40.00,0,-999,0,0.00
2013-4-24,51,37,29,31,29,25,91,73,45,0.00,40.00,0,-999,0,0.00
2013-4-25,53,41,32,38,34,30,94,79,54,0.00,40.00,0,-999,0,0.00
2013-4-26,54,41,35,37,34,32,98,78,53,0.00,40.00,0,-999,0,0.00
2013-4-27,47,38,34,37,33,30,100,86,52,0.00,40.00,0,-999,0,0.16
2013-4-28,42,36,33,36,34,30,100,91,74,0.00,40.00,0,-999,0,0.11
2013-4-29,35,32,27,34,27,21,100,83,59,0.00,40.00,0,-999,0,0.22
2013-4-30,33,28,24,24,22,20,88,78,64,0.00,40.00,0,-999,0,0.00
2013-5-1,50,33,22,33,24,15,93,73,27,0.00,40.00,0,-999,0,0.00
2013-5-2,56,41,34,36,32,25,90,71,34,0.00,40.00,0,-999,0,0.00
2013-5-3,54,41,33,38,35,29,95,81,50,0.00,40.00,0,-999,0,0.00
2013-5-4,56,41,37,35,33,30,86,73,38,0.00,40.00,0,-999,0,0.00
2013-5-5,56,44,38,35,32,29,80,64,38,0.00,40.00,0,-999,0,0.00
2013-5-6,56,44,38,37,35,31,81,72,49,0.00,40.00,0,-999,0,0.00
2013-5-7,58,44,38,41,37,34,90,77,53,0.00,40.00,0,-999,0,0.00
2013-5-8,59,45,38,42,38,35,91,78,53,0.00,40.00,0,-999,0,0.00
2013-5-9,57,44,38,40,35,30,88,72,50,0.00,40.00,0,-999,0,0.00
2013-5-10,66,47,40,43,35,28,91,64,37,0.00,40.00,0,-999,0,0.00
2013-5-11,59,47,42,46,41,39,94,82,57,0.00,40.00,0,-999,0,0.00
2013-5-12,52,45,41,49,43,39,97,91,78,0.00,40.00,0,-999,0,0.00
2013-5-20,56,42,39,41,39,37,98,89,49,0.00,40.00,0,-999,0,0.00
2013-5-21,39,36,31,39,35,31,100,99,91,0.00,40.00,0,-999,0,0.16
2013-5-22,36,32,29,34,31,29,100,97,90,0.00,40.00,0,-999,0,0.90
2013-5-23,37,34,32,35,33,31,100,96,89,0.00,40.00,0,-999,0,0.21
2013-5-24,40,35,33,38,35,33,100,98,91,0.00,40.00,0,-999,0,0.35
2013-5-25,48,39,33,40,36,33,100,90,62,0.00,40.00,0,-999,0,0.00
2013-5-26,49,41,34,44,38,34,100,92,68,0.00,40.00,0,-999,0,0.00
2013-5-27,41,39,36,40,38,34,100,96,83,0.00,40.00,0,-999,0,0.78
2013-5-28,47,40,35,42,38,35,100,93,73,0.00,40.00,0,-999,0,0.02
2013-5-29,43,38,35,42,37,34,100,97,84,0.00,40.00,0,-999,0,0.70
2013-5-30,42,37,34,40,37,34,100,98,93,0.00,40.00,0,-999,0,0.28
2013-5-31,52,41,35,42,38,35,100,92,68,0.00,40.00,0,-999,0,0.00
2013-6-1,55,43,37,45,40,37,100,90,64,0.00,40.00,0,-999,0,0.00
2013-6-2,46,42,38,42,40,37,100,94,81,0.00,40.00,0,-999,0,0.03
2013-6-3,60,45,35,42,38,35,100,81,46,0.00,40.00,0,-999,0,0.00
2013-6-4,64,47,36,47,41,35,98,83,45,0.00,40.00,0,-999,0,0.00
2013-6-5,67,51,41,49,45,40,99,83,49,0.00,40.00,0,-999,0,0.00
2013-6-6,69,52,40,51,45,40,99,80,46,0.00,40.00,0,-999,0,0.00
2013-6-7,56,47,40,50,43,38,95,87,66,0.00,40.00,0,-999,0,0.00
2013-6-8,63,48,37,48,42,36,98,81,47,0.00,40.00,0,-999,0,0.00
2013-6-9,56,46,39,43,40,37,99,81,56,0.00,40.00,0,-999,0,0.00
2013-6-10,58,45,39,43,39,33,97,81,47,0.00,40.00,0,-999,0,0.00
2013-6-11,45,40,37,40,37,35,99,90,68,0.00,40.00,0,-999,0,0.04
2013-6-12,45,39,34,40,38,34,100,94,80,0.00,40.00,0,-999,0,0.20
2013-6-13,45,40,37,41,38,37,100,94,83,0.00,40.00,0,-999,0,0.06
2013-6-14,43,40,38,40,39,37,100,97,88,0.00,40.00,0,-999,0,0.00
2013-6-15,68,52,39,50,43,37,98,76,32,0.00,40.00,0,-999,0,0.00
2013-6-16,60,50,42,53,47,40,99,89,73,0.00,40.00,0,-999,0,0.01
2013-6-17,62,52,41,49,44,41,99,77,47,0.00,40.00,0,-999,0,0.00
2013-6-18,58,48,41,45,40,33,99,76,44,0.00,40.00,0,-999,0,0.00
2013-11-10,39,36,33,39,36,33,100,100,99,0.00,40.00,0,-999,0,0.01
2013-11-11,39,37,34,36,35,34,100,91,82,0.00,40.00,0,-999,0,0.00
2013-11-12,42,39,36,42,39,36,99,99,99,0.00,40.00,0,-999,0,0.13
2013-11-13,37,37,37,37,37,37,100,100,100,0.00,40.00,0,-999,0,0.00
2013-11-14,32,32,31,32,32,31,100,100,100,0.00,40.00,0,-999,0,0.00
2013-11-15,31,31,31,31,31,31,98,98,98,0.00,40.00,0,-999,0,0.00
2013-11-16,27,27,27,26,26,26,96,96,95,0.00,40.00,0,-999,0,0.00
2013-11-17,34,30,28,34,29,25,99,96,88,0.00,40.00,0,-999,0,0.10
2013-11-18,33,32,32,33,32,32,100,100,100,0.00,40.00,0,-999,0,0.00
2013-11-19,34,29,24,34,29,23,100,99,97,0.00,40.00,0,-999,0,0.01
2013-11-25,35,35,35,26,26,26,69,69,69,0.00,40.00,0,-999,0,0.00
2013-11-26,35,34,34,28,26,23,78,70,61,0.00,40.00,0,-999,0,0.00
2013-11-27,41,38,36,33,30,28,88,75,66,0.00,40.00,0,-999,0,0.00
2013-11-28,34,34,33,28,28,27,83,80,76,0.00,40.00,0,-999,0,0.00
2013-11-29,35,33,32,33,33,32,100,97,91,0.00,40.00,0,-999,0,0.00
2013-11-30,36,35,35,36,35,35,100,100,100,0.00,40.00,0,-999,0,0.02
2013-12-1,37,36,35,37,36,35,100,100,100,0.00,40.00,0,-999,0,0.30
2013-12-2,26,23,20,26,23,19,99,98,96,0.00,40.00,0,-999,0,0.04
2013-12-3,22,19,12,21,17,10,96,92,84,0.00,40.00,0,-999,0,0.00
2013-12-4,15,14,14,13,12,12,92,92,91,0.00,40.00,0,-999,0,0.00
2013-12-11,32,29,26,32,29,26,99,99,99,0.00,40.00,0,-999,0,0.00
2013-12-12,37,32,29,29,28,26,98,86,63,0.00,40.00,0,-999,0,0.00
2013-12-13,35,34,32,34,33,32,100,97,95,0.00,40.00,0,-999,0,0.00
2013-12-14,34,33,32,34,33,32,100,100,100,0.00,40.00,0,-999,0,0.00
2013-12-15,35,34,33,35,34,33,100,100,99,0.00,40.00,0,-999,0,0.00
2013-12-16,33,32,30,33,32,30,100,100,99,0.00,40.00,0,-999,0,0.00
2013-12-18,32,31,30,32,30,28,100,96,88,0.00,40.00,0,-999,0,0.00
2013-12-19,21,19,16,19,17,15,95,93,91,0.00,40.00,0,-999,0,0.00
2013-12-20,34,31,20,34,31,19,100,99,97,0.00,40.00,0,-999,0,0.18
2013-12-31,33,31,29,33,31,29,100,100,99,0.00,40.00,0,-999,0,0.00
2014-1-1,27,27,27,27,27,27,99,99,99,0.00,40.00,0,-999,0,0.00
2014-1-2,35,35,35,35,35,35,100,100,100,0.00,40.00,0,-999,0,0.00